Date String (YYYY-MM-DD hh:mm:ss) UTC,Instrument flags,Ambient pressure (hPa),Sample flow (lpm),Bypass flow (lpm),Sample temperature (°C),Ambient temperature (°C),ASC tube jacket temperature (°C),LED temperature (°C),Box temperature (°C),Sample RH (%),Span deviation,Mass concentration (μg/m³),Mass concentration (μg/m³),Mass concentration (μg/m³)
DateTimeUTC,F1_M11,P_M11,Q1_M11,Q2_M11,T1_M11,T2_M11,T3_M11,T4_M11,T5_M11,U1_M11,ZSPAN_M11,X0_M11,X2_M11,X1_M11
2023-04-28 17:00:00,,0835.3,5.00,0.00,22.7,21.5,00.0,31.1,24.2,14.5,0000.0,0003.06,0002.23,0001.85
2023-04-28 17:01:00,,0835.3,5.01,0.00,22.8,21.5,00.0,31.1,24.3,14.5,0000.0,0002.92,0002.20,0001.85
2023-04-28 17:02:00,,0835.3,5.00,0.00,22.8,21.6,00.0,31.1,24.3,14.8,0000.0,0002.84,0002.18,0001.85
2023-04-28 17:03:00,,0835.3,5.01,0.00,22.8,21.6,00.0,31.1,24.3,15.6,0000.0,0002.66,0002.12,0001.83
2023-04-28 17:04:00,,0835.3,4.99,0.00,22.8,21.7,00.0,31.2,24.3,15.3,0000.0,0002.71,0002.13,0001.80
2023-04-28 17:05:00,,0835.2,5.00,0.00,22.8,21.7,00.0,31.2,24.3,15.1,0000.0,0002.74,0002.14,0001.79
2023-04-28 17:06:00,,0835.2,5.00,0.00,22.9,21.8,00.0,31.2,24.4,15.3,0000.0,0002.63,0002.08,0001.76
2023-04-28 17:07:00,,0835.2,5.00,0.00,22.9,21.8,00.0,31.2,24.4,15.9,0000.0,0002.52,0002.02,0001.72
2023-04-28 17:08:00,,0835.2,5.00,0.00,22.9,21.9,00.0,31.2,24.5,15.2,0000.0,0002.38,0001.95,0001.71
2023-04-28 17:09:00,,0835.2,5.00,0.00,23.0,21.9,00.0,31.2,24.6,14.7,0000.0,0002.28,0001.92,0001.70
2023-04-28 17:10:00,,0835.2,5.00,0.00,23.0,22.0,00.0,31.2,24.6,14.7,0000.0,0002.35,0001.93,0001.70
2023-04-28 17:11:00,,0835.2,5.00,0.00,23.0,22.1,00.0,31.3,24.6,14.7,0000.0,0002.38,0001.93,0001.68
2023-04-28 17:12:00,,0835.2,5.00,0.00,23.1,22.1,00.0,31.3,24.7,15.0,0000.0,0002.30,0001.90,0001.67
2023-04-28 17:13:00,,0835.2,5.00,0.00,23.1,22.1,00.0,31.3,24.7,15.6,0000.0,0002.26,0001.88,0001.66
2023-04-28 17:14:00,,0835.2,4.99,0.00,23.1,22.1,00.0,31.3,24.7,14.9,0000.0,0002.26,0001.89,0001.66
2023-04-28 17:15:00,,0835.3,5.01,0.00,23.1,22.1,00.0,31.3,24.7,14.7,0000.0,0002.17,0001.87,0001.68
2023-04-28 17:16:00,,0835.3,5.00,0.00,23.1,22.0,00.0,31.4,24.7,15.0,0000.0,0002.09,0001.85,0001.69
2023-04-28 17:17:00,,0835.3,5.00,0.00,23.1,22.1,00.0,31.4,24.7,15.3,0000.0,0002.29,0001.90,0001.71
2023-04-28 17:18:00,,0835.3,5.01,0.00,23.1,22.1,00.0,31.4,24.7,14.8,0000.0,0002.49,0001.96,0001.74
2023-04-28 17:19:00,,0835.3,4.98,0.00,23.1,22.0,00.0,31.4,24.7,15.0,0000.0,0002.53,0002.00,0001.77
2023-04-28 17:20:00,,0835.3,5.01,0.00,23.1,21.9,00.0,31.4,24.6,14.8,0000.0,0002.64,0002.05,0001.80
2023-04-28 17:21:00,,0835.2,5.00,0.00,23.1,21.8,00.0,31.4,24.6,14.9,0000.0,0002.70,0002.09,0001.83
2023-04-28 17:22:00,,0835.2,5.00,0.00,23.1,21.7,00.0,31.4,24.6,15.0,0000.0,0002.80,0002.11,0001.86
2023-04-28 17:23:00,,0835.2,5.00,0.00,23.0,21.6,00.0,31.4,24.5,15.2,0000.0,0003.58,0002.19,0001.89
2023-04-28 17:24:00,,0835.2,5.00,0.00,23.0,21.5,00.0,31.4,24.5,15.0,0000.0,0003.66,0002.23,0001.93
2023-04-28 17:25:00,,0835.1,5.00,0.00,23.0,21.5,00.0,31.4,24.4,15.4,0000.0,0003.65,0002.23,0001.95
2023-04-28 17:26:00,,0835.1,5.00,0.00,23.0,21.5,00.0,31.4,24.4,15.2,0000.0,0003.69,0002.26,0001.97
2023-04-28 17:27:00,,0835.1,5.00,0.00,22.9,21.5,00.0,31.4,24.4,15.6,0000.0,0003.70,0002.27,0001.98
2023-04-28 17:28:00,,0835.1,4.98,0.00,22.9,21.5,00.0,31.4,24.5,15.8,0000.0,0003.72,0002.29,0002.01
2023-04-28 17:29:00,,0835.2,5.00,0.00,22.9,21.5,00.0,31.4,24.4,15.0,0000.0,0003.61,0002.29,0002.03
2023-04-28 17:30:00,,0835.2,5.01,0.00,22.9,21.4,00.0,31.4,24.4,14.8,0000.0,0003.68,0002.32,0002.04
2023-04-28 17:31:00,,0835.1,5.01,0.00,22.9,21.4,00.0,31.4,24.4,14.9,0000.0,0003.73,0002.33,0002.05
2023-04-28 17:32:00,,0835.1,4.99,0.00,22.9,21.4,00.0,31.3,24.4,14.8,0000.0,0003.77,0002.34,0002.06
2023-04-28 17:33:00,,0835.0,5.00,0.00,22.9,21.3,00.0,31.3,24.4,14.8,0000.0,0003.73,0002.37,0002.08
2023-04-28 17:34:00,,0835.0,5.01,0.00,22.9,21.3,00.0,31.3,24.4,15.1,0000.0,0003.11,0002.39,0002.10
2023-04-28 17:35:00,,0835.1,5.01,0.00,22.9,21.4,00.0,31.3,24.5,15.7,0000.0,0003.08,0002.38,0002.10
2023-04-28 17:36:00,,0835.0,5.00,0.00,22.9,21.4,00.0,31.3,24.4,15.9,0000.0,0003.11,0002.40,0002.12
2023-04-28 17:37:00,,0835.0,4.99,0.00,22.9,21.5,00.0,31.3,24.4,15.4,0000.0,0003.09,0002.39,0002.12
2023-04-28 17:38:00,,0835.0,5.00,0.00,22.8,21.5,00.0,31.3,24.4,15.2,0000.0,0003.18,0002.41,0002.13
2023-04-28 17:39:00,,0835.0,5.00,0.00,22.8,21.4,00.0,31.3,24.3,15.1,0000.0,0003.05,0002.41,0002.16
2023-04-28 17:40:00,,0835.0,5.01,0.00,22.8,21.4,00.0,31.3,24.3,15.0,0000.0,0003.46,0002.44,0002.18
2023-04-28 17:41:00,,0835.0,5.00,0.00,22.8,21.4,00.0,31.3,24.3,15.2,0000.0,0003.81,0002.47,0002.21
2023-04-28 17:42:00,,0835.0,5.00,0.00,22.8,21.3,00.0,31.3,24.3,15.4,0000.0,0003.88,0002.50,0002.22
2023-04-28 17:43:00,,0835.0,5.00,0.00,22.8,21.3,00.0,31.3,24.2,15.3,0000.0,0003.77,0002.46,0002.20
2023-04-28 17:44:00,,0835.0,5.00,0.00,22.8,21.2,00.0,31.3,24.2,15.5,0000.0,0003.80,0002.45,0002.19
2023-04-28 17:45:00,,0834.9,5.00,0.00,22.7,21.2,00.0,31.2,24.2,15.1,0000.0,0003.77,0002.43,0002.18
2023-04-28 17:46:00,,0835.1,5.00,0.00,22.7,21.2,00.0,31.2,24.2,15.2,0000.0,0003.74,0002.42,0002.18
2023-04-28 17:47:00,,0835.3,5.00,0.00,22.7,21.3,00.0,31.2,24.2,15.2,0000.0,0003.74,0002.42,0002.18
2023-04-28 17:48:00,,0835.2,5.00,0.00,22.7,21.2,00.0,31.2,24.2,15.3,0000.0,0003.72,0002.42,0002.17
2023-04-28 17:49:00,,0835.4,5.00,0.00,22.7,21.3,00.0,31.2,24.2,15.0,0000.0,0003.76,0002.44,0002.16
2023-04-28 17:50:00,,0835.3,5.00,0.00,22.7,21.3,00.0,31.2,24.2,15.3,0000.0,0003.87,0002.44,0002.14
2023-04-28 17:51:00,,0835.2,5.00,0.00,22.7,21.3,00.0,31.2,24.2,15.2,0000.0,0003.61,0002.41,0002.12
2023-04-28 17:52:00,,0834.9,5.00,0.00,22.7,21.3,00.0,31.2,24.3,15.1,0000.0,0003.16,0002.38,0002.09
2023-04-28 17:53:00,,0834.9,5.00,0.00,22.7,21.3,00.0,31.2,24.3,15.0,0000.0,0003.01,0002.34,0002.07
2023-04-28 17:54:00,,0834.8,5.01,0.00,22.8,21.5,00.0,31.2,24.3,14.9,0000.0,0003.38,0002.36,0002.07
2023-04-28 17:55:00,,0835.1,4.99,0.00,22.8,21.6,00.0,31.2,24.4,15.0,0000.0,0004.15,0002.32,0002.07
2023-04-28 17:56:00,,0835.1,5.00,0.00,22.9,21.7,00.0,31.2,24.4,15.0,0000.0,0004.14,0002.31,0002.05
2023-04-28 17:57:00,,0835.2,5.00,0.00,22.9,21.7,00.0,31.2,24.4,14.8,0000.0,0004.15,0002.32,0002.05
2023-04-28 17:58:00,,0835.0,5.00,0.00,22.9,21.7,00.0,31.2,24.4,14.8,0000.0,0004.27,0002.30,0002.06
2023-04-28 17:59:00,,0834.9,5.01,0.00,22.9,21.7,00.0,31.2,24.4,14.7,0000.0,0004.46,0002.32,0002.06
